#timestamp,LO_Frequency,Hit,StdDev 
1508306415.7,286047001.5,N
1508306435.5,286047004.2,N
1508306455.4,286047002.1,N
1508306475.2,286047002.1,N
1508306495.0,286047001.0,N
1508306495.9,286047001.0,N
1508306515.8,286047000.3,N
1508306535.6,286046999.9,N
1508306555.4,286046999.2,N
1508306575.2,286046997.1,N
1508306595.1,286046997.6,N
1508306596.0,286046997.6,N
1508306615.8,286046997.2,N
1508306635.7,286046996.7,N
1508306655.5,286046999.0,N
1508306675.3,286046997.9,N
1508306695.1,286046998.5,N
1508306715.9,286047002.5,N
1508306735.7,286047006.3,Y
1508306755.6,286047010.8,P
1508306775.4,286047010.5,N
1508306795.2,286047008.4,N
1508306815.0,286047011.1,N
1508306816.0,286047011.1,N
1508306835.8,286047013.3,Y
1508306855.6,286047001.5,P
1508306875.5,286047004.5,N
1508306895.3,286047005.5,N
1508306915.1,286047010.8,Y
1508306935.9,286047005.2,P
1508306955.7,286047003.6,P
1508306975.5,286047003.1,P
1508306995.4,286047007.6,Y
1508307015.2,286047005.6,P
1508307035.0,286047004.8,P
1508307035.9,286047004.8,P
1508307055.8,286047003.1,Y
1508307075.6,286046998.8,P
1508307095.4,286047001.0,N
1508307115.3,286047002.6,N
1508307135.1,286047001.5,N
1508307136.0,286047001.5,N
1508307155.8,286046996.6,N
1508307175.7,286046995.5,N
1508307195.5,286046998.4,N
1508307215.3,286047000.2,N
1508307235.2,286046999.7,N
1508307255.9,286047002.0,N
1508307275.7,286047000.5,N
1508307295.5,286047000.6,N
1508307315.4,286047001.1,N
1508307335.2,286046998.5,N
1508307355.0,286046998.6,N
1508307355.9,286046998.6,N
1508307375.8,286047001.5,N
1508307395.6,286047001.7,N
1508307415.4,286047001.3,N
1508307435.3,286046998.6,N
1508307455.1,286047000.0,N
1508307475.8,286047002.3,N
1508307495.7,286047003.0,N
1508307515.5,286047002.2,N
1508307535.3,286047001.7,N
1508307555.2,286047004.8,N
1508307575.9,286047007.4,Y
1508307595.7,286047006.3,P
1508307615.6,286047004.4,N
1508307635.4,286047001.5,N
1508307655.2,286046998.2,N
1508307675.1,286047000.6,N
1508307676.0,286047000.6,N
1508307695.8,286047001.4,N
1508307715.6,286047005.3,N
1508307735.5,286047005.7,N
1508307755.3,286047006.6,N
1508307775.1,286047006.7,N
1508307795.8,286047005.1,N
1508307815.7,286047005.5,N
1508307835.5,286047003.0,N
1508307855.3,286047003.3,N
1508307875.2,286047001.3,N
1508307895.9,286047007.6,N
1508307915.7,286047006.3,N
1508307935.6,286047006.4,N
1508307955.4,286047002.9,N
1508307975.2,286047005.5,N
1508307995.1,286047003.2,N
1508307996.0,286047003.2,N
1508308015.8,286047005.0,N
1508308035.6,286047007.2,N
1508308055.5,286047010.8,Y
1508308075.3,286047007.3,P
1508308095.1,286047005.5,P
1508308115.9,286047004.8,P
1508308135.7,286047004.6,Y
1508308155.5,286046995.6,P
1508308175.4,286046995.8,N
1508308195.2,286046998.0,N
1508308215.0,286046995.6,N
1508308215.9,286046995.6,N
1508308235.8,286046994.6,N
1508308255.6,286046993.5,N
1508308275.4,286046992.5,N
1508308295.3,286046994.7,N
1508308315.1,286046993.4,N
1508308316.0,286046993.4,N
1508308335.8,286046989.6,Y
1508308355.7,286046992.4,P
1508308375.5,286046994.3,P
1508308395.3,286046994.3,P
1508308415.2,286046994.4,Y
1508308435.9,286047001.4,P
1508308455.7,286047005.3,N
1508308475.6,286047003.7,N
1508308495.4,286047001.7,N
1508308515.2,286047001.4,N
1508308535.1,286047007.2,N
1508308536.0,286047007.2,N
1508308555.8,286047006.1,N
1508308575.6,286047008.5,N
1508308595.4,286047006.3,N
1508308615.3,286047007.4,N
1508308635.1,286047007.4,N
1508308655.8,286047006.2,N
1508308675.7,286047003.8,N
1508308695.5,286047006.6,N
1508308715.3,286047004.7,N
1508308735.2,286047009.0,N
1508308755.9,286047007.3,N
1508308775.7,286047006.2,N
1508308795.6,286047006.6,N
1508308815.4,286047007.1,N
1508308835.2,286047008.6,N
1508308855.1,286047011.1,Y
1508308856.0,286047011.1,P
1508308875.8,286047005.3,N
1508308895.6,286047003.5,N
1508308915.5,286046999.7,N
1508308935.3,286046999.9,N
1508308955.1,286047002.0,N
1508308975.9,286046999.5,N
1508308995.7,286046998.0,N
1508309015.5,286046996.6,N
1508309035.3,286046999.0,N
1508309055.2,286047001.2,N
1508309075.0,286047002.0,N
1508309075.9,286047002.0,N
1508309095.7,286047003.5,N
1508309115.6,286047003.2,N
1508309135.4,286047002.4,N
1508309155.2,286046999.9,N
1508309175.1,286046999.9,N
1508309176.0,286046999.9,N
1508309195.8,286046998.4,N
1508309215.6,286046994.7,N
1508309235.5,286047001.1,N
1508309255.3,286046998.9,N
1508309275.1,286046998.3,N
1508309295.9,286046996.6,N
1508309315.7,286046999.6,N
1508309335.5,286046995.8,N
1508309355.4,286046994.3,N
1508309375.2,286046997.7,N
1508309395.0,286047001.1,N
1508309395.9,286047001.1,N
1508309415.7,286046999.9,N
1508309435.6,286046996.3,N
1508309455.4,286046993.4,N
1508309475.2,286046995.5,N
1508309495.1,286046995.1,N
1508309496.0,286046995.1,N
1508309515.8,286046995.0,N
1508309535.6,286046997.7,N
1508309555.5,286047002.8,N
1508309575.3,286047000.0,N
1508309595.1,286047001.6,N
1508309615.9,286047002.7,N
1508309635.7,286046998.2,N
1508309655.5,286046997.7,N
1508309675.4,286046996.7,N
1508309695.2,286046997.2,N
1508309715.0,286046999.8,N
1508309715.9,286046999.8,N
1508309735.8,286046999.7,N
1508309755.6,286046999.9,N
1508309775.4,286046999.3,N
1508309795.3,286047000.7,N
1508309815.1,286046997.0,N
1508309816.0,286046997.0,N
1508309835.8,286046995.3,N
1508309855.7,286046994.2,N
1508309875.5,286046992.7,N
1508309895.3,286046990.3,Y
1508309915.2,286046996.9,P
1508309935.9,286046999.0,N
1508309955.7,286046999.1,N
1508309975.6,286046995.3,Y
1508309995.4,286046996.2,P
